Regional Weather Roundup
Issued by NWS Green Bay, WI

Home | Current Version | Previous Version | Graphics & Text | Print | Product List | Glossary Off
Versions: 1 2 3 4 5 6 7 8 9 10 11 12 13 14 15 16 17 18 19 20 21 22 23 24 25 26 27 28 29 30 31 32 33 34 35 36 37 38 39 40 41 42 43 44 45 46 47 48 49 50

000
ASUS43 KGRB 282211
RWRGRB

NORTH-CENTRAL AND NORTHEAST WISCONSIN REGIONAL WEATHER ROUNDUP
NATIONAL WEATHER SERVICE GREEN BAY WI
500 PM CDT TUE MAR 28 2017

WIZ005-009-010>012-018-019-282300-
NORTH CENTRAL WISCONSIN

CITY           SKY/WX    TMP DP  RH WIND       PRES   REMARKS
IRONWOOD       SUNNY     56  27  32 NE6       30.17R
MANITOWISH WTR SUNNY     57  24  27 NW3       30.14S
ARBOR VITAE    SUNNY     59  24  25 W6        30.14R
EAGLE RIVER    MOSUNNY   57  23  26 CALM      30.14R
LAND O LAKES   MOSUNNY   57  24  28 CALM      30.15S
RHINELANDER    SUNNY     59  26  28 E5        30.15R
PHILLIPS       SUNNY     59  22  24 CALM      30.13S
ANTIGO         SUNNY     56  28  34 CALM      30.15S
TOMAHAWK       SUNNY     57  21  24 CALM      30.15R
MERRILL        SUNNY     58  27  30 SE7       30.15R
$$

WIZ013-073-282300-
NORTHEAST WISCONSIN

CITY           SKY/WX    TMP DP  RH WIND       PRES   REMARKS
IRON MOUNTAIN  SUNNY     58  27  30 NW8       30.13S
MARINETTE        N/A    N/A N/A N/A MISG        N/A
OCONTO         SUNNY     46  32  58 E3        30.19R
$$

WIZ017-030-035>037-045-282300-
CENTRAL WISCONSIN

CITY           SKY/WX    TMP DP  RH WIND       PRES   REMARKS
MEDFORD        SUNNY     56  30  37 CALM      30.14S
WAUSAU         SUNNY     58  26  29 NW6       30.13S
MOSINEE        SUNNY     57  27  30 VRB6      30.15S
MARSHFIELD     SUNNY     56  35  45 CALM      30.14S
WISC RAPIDS    SUNNY     60  31  33 E9        30.15S
STEVENS POINT  SUNNY     56  27  32 E6        30.15R
WAUPACA        SUNNY     60  29  32 E7        30.16S
SHAWANO        SUNNY     57  33  39 NE6       30.17R
CLINTONVILLE   SUNNY     57  32  38 NE5       30.16S
WAUTOMA        SUNNY     58  32  37 E9        30.15S
$$

WIZ038-039-048-051-282300-
FOX VALLEY

CITY           SKY/WX    TMP DP  RH WIND       PRES   REMARKS
NWS GREEN BAY  SUNNY     50  38  63 NE7       30.18R
APPLETON       MOSUNNY   54  21  28 NE7       30.14S
OSHKOSH        SUNNY     52  36  54 NE9       30.15F
FOND DU LAC    SUNNY     54  39  57 N8        30.15F
$$

WIZ022-050-052-282300-
EAST CENTRAL WISCONSIN

CITY           SKY/WX    TMP DP  RH WIND       PRES   REMARKS
EPHRAIM        FAIR      46  37  68 E5        30.18S
WASHINGTON ISL FAIR      45  35  66 S6        30.17F
STURGEON BAY   SUNNY     45  37  73 VRB5      30.23S
MANITOWOC      SUNNY     41  36  82 NE8       30.19R
SHEBOYGAN      CLOUDY    37  35  92 E8        30.18S FOG
$$

LMZ563-521-522-541>543-282300-
LAKESHORE

STATION/POSITION TIME  TEMP    WIND        PRES    VSBY  WAVE
                       AIR SEA DIR/SP/G                  HT/PER
                 (UTC) (F)     (DEG/KT/KT) (MB)    (MI)  (FT/S)
SHEBOYGAN LKSHOR 2200   34      10/  9/ 10 1022.6F
KEWAUNEE LKSHORE 2142   36      50/  4/  7 1022.1R
NORTHPORT PIER   2140   33     150/  4/  6 1022.4S
CHAMBERS ISLAND  2140   38      CALM  /  3 1022.0S
MENOMINEE LKSHOR 2142   32     340/  2/  2 1021.5S
$$




USA.gov is the U.S. government's official web portal to all federal, state and local government web resources and services.